Location: Juzet
(42.9779°N, 0.7597°E)
Time: 19:17:44
(UTC+00:00)

CZ-4B R/B - Pass Details

Date: 14 July 2020
Orbit: 390 x 465 km, 97.6° (Epoch: 12 August)

Event Time Altitude Azimuth Distance (km) Brightness Sun altitude
Rises 03:41:50 0° 148° (SSE) 2,482 5.1 -8.1°
Reaches altitude 10° 03:43:57 10° 140° (SE) 1,615 4.2 -7.8°
Maximum altitude 03:47:11 37° 72° (ENE) 742 3.2 -7.4°
Drops below altitude 10° 03:50:26 10° 4° (N) 1,628 4.9 -6.9°
Sets 03:52:34 0° 356° (N) 2,504 5.7 -6.6°
